Date,TemperatureHighF,TemperatureAvgF,TemperatureLowF,DewpointHighF,DewpointAvgF,DewpointLowF,HumidityHigh,HumidityAvg,HumidityLow,PressureMaxIn,PressureMinIn,WindSpeedMaxMPH,WindSpeedAvgMPH,GustSpeedMaxMPH,PrecipitationSumIn
2013-1-1,79.2,64.5,51.8,61.3,56.4,51.4,99,78,46,30.25,30.06,15,2,15,0.00
2013-1-2,81.3,69.0,59.5,70.0,65.5,57.9,99,90,64,30.09,30.01,11,2,11,0.00
2013-1-3,73.8,65.1,59.2,72.0,63.9,58.6,99,96,80,30.20,30.05,15,4,15,0.28
2013-1-4,61.9,58.3,54.9,60.3,57.7,54.3,99,98,94,30.31,30.18,13,4,13,0.11
2013-1-5,72.0,61.6,55.4,60.8,56.9,51.3,98,85,63,30.34,30.21,14,4,14,0.00
2013-1-6,79.2,66.0,61.3,69.3,63.5,60.1,99,92,70,30.23,30.10,13,4,13,0.01
2013-1-7,68.5,63.1,59.4,64.4,59.4,52.7,99,89,69,30.25,30.13,17,6,17,0.04
2013-1-8,83.1,70.6,61.7,68.7,64.8,61.0,99,83,56,30.25,30.13,13,4,13,0.01
2013-1-9,84.6,75.2,69.3,71.6,68.0,64.8,99,80,54,30.31,30.18,15,4,15,0.00
2013-1-10,81.5,74.4,69.1,70.3,66.5,61.3,99,78,51,30.31,30.21,17,5,17,0.00
2013-1-11,83.3,72.2,63.1,68.5,63.6,59.0,99,77,46,30.28,30.13,15,3,15,0.00
2013-1-12,83.1,71.4,63.3,68.4,66.2,62.2,99,85,52,30.20,30.09,13,3,13,0.00
2013-1-13,82.2,72.4,63.9,67.8,64.8,62.1,98,78,51,30.18,30.06,10,2,10,0.00
2013-1-14,82.8,69.6,60.3,67.6,61.1,55.2,99,78,42,30.20,30.12,12,2,12,0.00
2013-1-15,82.8,68.8,58.3,67.1,61.6,57.9,99,81,48,30.17,30.06,11,2,11,0.00
2013-1-16,83.7,70.2,61.0,67.8,62.2,54.5,99,80,39,30.13,30.01,9,2,9,0.00
2013-1-17,70.2,62.2,53.6,69.8,57.7,44.6,99,86,57,30.19,30.00,27,8,27,0.24
2013-1-18,63.0,54.7,43.0,53.4,45.4,35.8,80,71,58,30.36,30.19,20,7,20,0.00
2013-1-19,76.3,65.0,54.0,59.5,54.2,46.8,86,69,52,30.31,30.15,18,6,18,0.00
2013-1-20,76.5,65.4,59.7,61.9,58.6,54.0,94,79,61,30.22,30.07,12,4,12,0.00
2013-1-21,77.0,65.3,61.0,61.2,56.6,51.4,89,74,55,30.14,30.06,15,4,15,0.00
2013-1-22,68.9,59.6,48.7,52.2,37.0,16.9,74,47,15,30.33,30.10,13,4,13,0.00
2013-1-23,69.3,55.1,45.1,46.6,37.1,23.4,95,55,19,30.41,30.31,17,4,17,0.00
2013-1-24,73.4,55.8,42.8,55.2,48.3,41.4,99,80,34,30.38,30.29,14,2,14,0.00
2013-1-25,77.0,58.4,46.4,61.2,50.0,10.4,99,79,29,30.36,30.22,9,2,9,0.00
2013-1-26,76.1,61.0,48.7,60.1,55.0,48.6,99,84,51,30.33,30.21,13,2,13,0.01
2013-1-27,80.1,63.5,50.4,63.9,55.8,49.8,99,80,37,30.35,30.24,13,3,13,0.00
2013-1-28,82.8,69.8,62.2,65.3,62.2,58.6,98,79,47,30.35,30.22,15,4,15,0.00
2013-1-29,86.4,71.6,60.1,68.9,64.7,59.7,99,81,45,30.26,30.10,15,4,15,0.00
2013-1-30,80.8,73.4,68.0,67.8,66.0,63.5,91,79,58,30.11,29.91,21,8,21,0.00
2013-1-31,70.5,58.4,49.6,64.0,44.3,29.5,99,62,34,30.28,29.98,23,9,23,0.17
2013-2-1,66.6,56.4,46.9,45.3,35.7,19.9,77,49,19,30.41,30.26,17,5,17,0.00
2013-2-2,67.1,52.8,45.9,45.5,38.6,31.8,78,60,27,30.36,30.31,11,4,11,0.00
2013-2-4,70.5,59.2,45.9,55.2,42.0,13.5,99,59,14,30.19,30.09,12,3,12,0.00
2013-2-5,78.8,59.6,43.9,55.6,47.6,37.0,99,71,30,30.14,30.04,11,2,11,0.00
2013-2-6,80.2,67.8,57.6,62.2,58.7,54.1,96,75,45,30.14,30.05,12,-1,12,0.00
2013-2-7,81.3,69.9,61.9,68.5,63.9,57.4,99,83,47,30.09,29.88,16,5,16,0.12
2013-2-8,74.5,66.3,59.5,67.8,62.3,57.4,99,87,65,30.12,29.93,15,6,15,0.01
2013-2-9,77.2,64.0,55.4,59.5,55.5,47.1,99,76,36,30.24,30.10,15,4,15,0.00
2013-2-10,81.7,70.0,61.2,63.0,58.9,54.9,90,70,44,30.27,30.15,21,6,21,0.00
2013-2-11,82.4,71.7,63.0,67.5,64.2,60.6,96,79,55,30.22,29.83,13,4,13,0.00
2013-2-12,87.1,73.5,67.8,76.1,69.3,67.1,99,88,66,30.12,29.77,15,5,15,0.00
2013-2-13,82.4,71.3,59.2,73.2,68.6,55.9,99,92,72,30.02,29.86,22,5,22,0.69
2013-2-14,65.5,61.2,59.0,62.8,60.1,57.9,99,96,85,30.09,29.96,17,2,17,0.28
2013-2-15,68.2,59.0,53.2,59.2,54.6,49.6,99,86,60,30.13,30.00,11,3,11,0.02
2013-2-16,70.0,58.4,49.6,54.3,45.8,30.6,95,65,39,30.18,29.99,26,8,26,0.00
2013-2-17,85.6,47.2,36.0,33.8,24.4,12.2,88,43,25,30.40,29.96,24,7,24,0.00
2013-2-18,72.0,52.4,35.6,50.7,34.9,13.3,94,57,18,30.41,29.96,17,4,17,0.00
2013-2-19,78.3,63.7,48.6,62.8,55.4,47.5,99,78,44,30.26,30.12,15,3,15,0.00
2013-2-20,91.6,64.9,57.7,64.2,60.2,53.6,99,86,58,30.16,30.05,13,3,13,0.00
2013-2-21,84.6,68.7,57.0,65.3,61.0,53.2,98,79,46,30.14,30.00,12,3,12,0.00
2013-2-22,83.8,72.3,61.3,69.6,66.3,61.0,99,84,57,30.09,30.00,15,4,15,0.00
2013-2-23,81.9,72.9,68.9,72.7,70.5,63.1,99,93,76,30.09,29.91,17,5,17,0.00
2013-2-24,91.0,71.7,68.2,72.5,69.5,67.8,99,93,72,30.04,29.89,15,3,15,0.00
2013-2-25,83.8,74.8,68.7,72.7,69.8,66.4,99,86,61,30.04,29.78,15,4,15,0.00
2013-2-26,77.4,72.0,67.5,72.9,68.0,60.8,99,88,65,29.92,29.71,19,5,19,0.37
2013-2-27,91.9,65.6,60.3,62.2,56.5,52.3,84,73,54,30.04,29.90,15,6,15,0.00
2013-2-28,73.9,65.6,60.1,58.1,52.4,-14.6,79,63,47,30.04,29.94,15,5,15,0.00
2013-3-1,91.9,58.6,52.7,48.6,42.3,33.1,67,55,41,30.07,29.95,18,7,18,0.00
2013-3-2,60.3,54.7,47.5,42.4,38.2,32.7,74,54,43,30.13,30.02,21,8,21,0.00
2013-3-3,75.6,48.7,42.8,38.7,33.6,26.8,67,56,44,30.20,30.01,21,8,21,0.00
2013-3-4,62.4,52.5,41.4,42.1,33.9,24.4,95,52,29,30.28,30.18,13,4,13,0.00
2013-3-5,75.4,59.7,40.5,61.7,50.9,40.1,99,76,46,30.22,30.07,14,3,14,0.00
2013-3-6,66.9,59.9,54.0,65.1,45.8,35.6,96,62,39,30.19,30.00,26,11,26,0.09
2013-3-7,85.8,52.9,44.6,46.2,37.2,27.7,92,57,29,30.28,30.01,17,5,17,0.00
2013-3-8,69.8,57.9,40.3,51.1,43.5,32.0,99,64,27,30.28,30.18,14,4,14,0.00
2013-3-9,75.4,61.1,47.5,54.1,47.6,33.1,98,66,23,30.27,30.17,15,4,15,0.00
2013-3-10,79.7,66.6,58.3,58.3,54.5,49.8,89,67,36,30.20,30.07,18,6,21,0.00
2013-3-11,79.5,68.8,57.9,62.2,58.2,54.1,94,71,43,30.14,29.89,15,5,15,0.00
2013-3-12,70.2,64.8,59.2,68.0,59.7,50.9,99,84,68,30.10,29.88,16,7,16,0.18
2013-3-13,68.5,62.5,57.9,52.5,44.3,26.1,76,53,22,30.24,30.08,21,9,21,0.00
2013-3-14,61.5,57.9,51.1,52.7,35.9,13.6,76,46,16,30.33,30.21,19,8,21,0.00
2013-3-15,68.7,56.3,40.5,50.2,38.3,13.3,97,59,12,30.35,30.22,13,3,13,0.00
2013-3-16,77.9,58.9,44.2,58.6,47.5,30.6,99,75,20,30.25,30.12,12,2,12,0.00
2013-3-17,78.6,63.7,50.4,61.7,55.9,50.0,99,78,44,30.18,30.03,12,2,12,0.01
2013-3-18,75.0,68.1,59.4,68.5,63.6,58.1,98,86,73,30.07,29.89,12,3,12,0.00
2013-3-19,83.3,70.3,61.9,70.2,64.1,59.0,99,83,49,30.04,29.93,15,3,15,0.00
2013-3-20,72.7,66.1,58.6,66.9,63.3,57.9,99,91,68,30.01,29.84,22,3,22,0.14
2013-3-21,65.1,59.8,51.1,60.3,46.7,21.2,99,66,22,30.05,29.92,17,5,17,0.01
2013-3-23,83.5,76.0,70.2,74.7,72.3,69.8,99,89,73,29.94,29.81,14,5,14,0.00
2013-3-24,80.8,73.7,69.3,74.5,71.8,67.5,99,94,81,29.85,29.67,19,6,19,0.00
2013-3-25,69.3,62.7,57.7,67.8,49.0,34.5,96,62,35,30.10,29.78,28,10,28,0.00
2013-3-26,60.3,55.4,50.0,45.1,35.9,29.3,62,48,35,30.31,30.09,26,10,26,0.00
2013-3-27,57.0,50.2,42.8,40.8,34.0,24.6,89,55,35,30.39,30.27,15,6,15,0.00
2013-3-28,68.0,56.1,42.4,47.7,35.9,15.1,98,55,16,30.36,30.25,15,4,15,0.22
2013-3-29,75.9,60.1,45.5,52.3,44.1,15.4,97,63,11,30.38,30.24,13,3,13,0.00
2013-3-30,78.6,63.1,47.5,58.3,50.3,37.4,98,69,25,30.30,30.17,15,3,15,0.00
2013-3-31,79.2,67.2,54.7,62.6,56.7,46.4,99,73,33,30.20,30.02,12,3,12,0.00
2013-4-1,82.2,72.8,66.7,70.3,66.2,62.1,98,81,60,30.06,29.98,18,5,18,0.00
2013-4-2,80.2,70.0,60.8,66.2,63.5,60.4,99,82,55,30.12,30.03,10,2,10,0.00
2013-4-3,86.0,72.8,62.4,70.0,65.7,58.3,99,81,44,30.12,29.96,14,4,14,0.05
2013-4-4,76.1,70.3,67.5,71.2,68.0,63.1,99,93,68,30.06,29.87,12,4,12,0.44
2013-4-5,73.4,67.1,62.2,68.2,62.3,56.3,99,86,62,30.04,29.83,20,6,20,0.15
2013-4-6,74.7,64.6,55.0,61.2,55.7,51.1,92,74,48,30.15,30.03,15,6,15,0.00
2013-4-7,85.1,70.9,60.4,62.8,59.5,51.3,97,70,34,30.19,30.06,15,4,15,0.00
2013-4-8,89.4,74.6,66.7,65.8,60.4,48.2,89,65,26,30.16,30.05,14,4,15,0.00
2013-4-9,86.4,74.2,62.8,68.0,64.2,59.9,98,73,44,30.19,30.08,15,4,15,0.00
2013-4-10,89.6,76.4,67.6,68.9,64.6,58.8,92,69,38,30.14,29.98,15,4,15,0.00
2013-4-11,89.8,78.7,72.1,72.9,70.7,65.3,94,78,53,30.01,29.82,16,5,16,0.00
2013-4-12,78.8,76.3,71.8,75.2,73.4,69.1,98,91,85,29.94,29.78,16,5,16,0.02
2013-4-13,85.5,75.3,67.8,70.3,67.7,64.4,99,79,54,30.00,29.90,11,3,11,0.00
2013-4-14,85.8,75.5,68.5,74.1,69.0,61.0,92,81,65,30.03,29.86,24,6,24,0.00
2013-4-15,87.3,77.2,67.8,70.2,65.9,61.3,87,70,48,30.10,29.93,13,3,15,0.00
2013-4-16,93.4,79.4,67.3,73.9,69.2,64.9,99,74,41,30.15,30.05,15,4,15,0.00
2013-4-17,91.9,79.4,68.7,70.7,64.6,54.5,95,64,30,30.16,30.01,16,6,16,0.00
2013-4-18,91.6,79.4,70.2,72.5,67.7,63.0,92,70,41,30.07,29.95,13,4,13,0.00
2013-4-19,89.6,80.4,73.2,74.3,71.7,65.5,97,77,47,30.03,29.94,18,5,18,0.00
2013-4-20,77.4,69.3,61.2,73.9,63.7,57.6,95,83,68,30.18,30.00,21,6,21,0.02
2013-4-21,82.4,69.7,61.2,71.2,64.3,56.8,99,84,61,30.18,30.04,14,5,14,0.33
2013-4-22,84.2,72.4,67.1,70.3,67.4,63.5,99,86,56,30.11,29.99,18,5,18,0.22
2013-4-23,84.9,73.9,65.7,68.4,64.3,57.9,93,74,53,30.14,30.03,18,6,18,0.00
2013-4-24,86.0,73.9,64.4,68.0,63.4,52.7,94,72,34,30.16,30.09,15,5,15,0.00
2013-4-25,86.9,75.0,63.1,70.3,66.0,61.9,99,76,45,30.22,30.13,14,4,14,0.00
2013-4-26,88.0,76.8,65.1,71.8,66.8,61.9,98,73,45,30.25,30.17,13,3,13,0.00
2013-4-27,130.1,77.3,70.0,70.2,67.1,50.2,96,72,43,30.25,30.09,16,5,16,0.01
2013-4-28,87.1,77.5,68.2,68.5,64.7,55.6,88,67,36,30.15,29.98,16,5,16,0.00
2013-4-29,86.0,77.4,68.5,71.8,66.8,60.6,92,71,49,30.04,29.91,12,3,12,0.01
2013-4-30,89.6,77.1,68.0,72.7,69.2,63.0,99,79,44,30.01,29.91,11,4,11,0.56
2013-5-1,75.0,71.6,67.6,73.9,70.4,67.3,99,96,89,30.01,29.93,15,4,15,0.61
2013-5-2,83.3,73.0,66.6,72.0,68.8,66.2,99,88,64,29.99,29.82,15,4,15,0.01
2013-5-3,83.5,75.1,68.2,74.7,69.1,65.7,99,83,61,29.84,29.73,15,4,15,0.52
2013-5-4,81.9,73.6,66.4,69.8,67.4,65.1,99,82,62,29.85,29.71,20,5,20,0.00
2013-5-5,77.4,70.9,64.6,66.6,54.7,45.1,96,59,35,29.97,29.82,22,8,22,0.01
2013-5-6,72.5,68.4,65.7,64.0,56.5,53.2,77,66,52,30.04,29.94,13,4,13,0.00
2013-5-7,78.6,71.8,64.9,61.9,56.6,53.2,73,59,44,30.08,30.00,17,5,17,0.00
2013-5-8,80.4,72.4,61.2,64.8,60.0,55.2,92,67,46,30.16,30.06,13,3,13,0.00
2013-5-9,84.6,73.0,60.3,70.3,63.2,59.7,99,74,51,30.17,30.10,12,3,12,0.00
2013-5-10,91.2,76.5,62.8,71.2,64.9,54.3,99,72,31,30.18,29.91,11,2,11,0.00
2013-5-11,89.1,78.0,71.2,76.3,72.0,68.7,99,83,53,30.08,30.01,15,3,15,0.00
2013-5-12,86.2,77.3,69.6,76.1,69.9,66.4,99,80,56,30.07,29.95,14,3,14,0.01
2013-5-13,82.8,75.8,68.2,70.2,57.5,41.0,87,57,25,30.17,30.03,17,6,17,0.00
2013-5-14,82.8,73.0,61.7,81.1,41.6,16.7,70,36,10,30.24,30.13,16,5,16,0.00
2013-5-15,86.9,74.8,61.0,65.1,57.2,40.1,92,58,24,30.23,30.08,14,3,14,0.00
2013-5-16,86.4,76.1,64.2,68.9,62.5,54.5,95,66,38,30.14,30.01,11,3,11,0.00
2013-5-17,87.3,78.4,68.7,68.0,65.2,58.8,94,66,42,30.11,30.04,12,4,12,0.00
2013-5-18,88.5,79.4,71.1,73.8,69.2,64.0,95,72,48,30.12,30.03,12,4,12,0.00
2013-5-19,88.7,79.3,68.5,75.7,67.8,62.8,99,71,43,30.11,30.00,11,3,11,0.00
2013-5-20,90.7,80.1,71.4,73.4,69.0,59.7,91,70,43,30.09,29.98,15,3,15,0.00
2013-5-21,88.3,77.8,69.3,73.6,69.8,64.8,99,78,48,30.04,29.93,19,4,19,0.01
2013-5-22,87.6,78.8,70.7,73.0,70.8,68.2,97,78,55,29.99,29.90,13,3,13,0.00
2013-5-23,87.6,80.4,70.9,73.9,71.5,69.6,99,76,57,30.03,29.94,14,4,14,0.00
2013-5-24,90.5,82.5,76.5,76.3,71.2,62.6,88,70,42,30.10,29.99,14,5,14,0.00
2013-5-25,95.0,83.0,72.5,71.6,60.9,46.8,80,51,21,30.19,30.07,17,6,17,0.00
2013-5-26,90.3,79.5,70.7,62.2,53.8,35.1,74,45,16,30.23,30.11,17,5,17,0.00
2013-5-27,91.8,79.4,67.8,66.4,60.5,49.8,86,55,26,30.20,30.06,18,5,18,0.00
2013-5-28,92.8,80.0,71.1,72.7,68.8,62.1,91,71,38,30.17,30.02,22,7,22,0.01
2013-5-29,88.9,80.4,74.7,73.2,69.8,62.8,91,71,50,30.12,30.02,19,8,19,0.00
2013-5-30,89.6,81.8,75.7,73.2,70.0,63.5,90,69,49,30.09,30.00,26,10,26,0.00
2013-5-31,93.4,81.2,75.7,74.7,69.9,66.9,81,69,42,30.10,30.00,20,7,20,0.01
2013-6-1,91.4,80.6,71.8,75.4,72.5,68.9,99,78,51,30.07,29.95,17,6,17,0.59
2013-6-2,91.6,81.5,73.4,78.6,74.1,71.1,99,80,54,30.02,29.90,13,3,13,0.01
2013-6-3,89.6,80.7,74.3,78.8,74.0,70.7,99,81,57,30.02,29.91,13,2,13,0.02
2013-6-4,90.5,81.5,75.9,75.2,72.2,65.3,97,75,47,30.03,29.94,17,3,17,0.00
2013-6-5,86.9,79.6,74.3,74.8,72.3,69.4,95,79,58,30.02,29.89,13,4,13,0.12
2013-6-6,83.5,77.0,73.8,77.0,74.2,70.0,99,92,70,29.91,29.64,28,8,28,2.81
2013-6-10,91.8,85.4,77.0,77.0,74.2,70.2,90,70,51,30.09,30.01,16,4,16,0.00
2013-6-11,93.2,82.6,74.8,79.0,75.5,71.4,98,81,52,30.10,30.02,12,2,12,0.12
2013-6-12,92.5,83.5,73.8,81.1,74.7,71.6,99,77,55,30.10,30.01,15,3,15,0.04
2013-6-13,91.8,83.5,75.4,78.1,73.7,66.6,99,74,47,30.06,29.92,12,4,12,0.00
2013-6-14,90.5,83.8,79.9,75.4,73.1,70.3,81,71,55,29.98,29.89,15,5,15,0.00
2013-6-15,90.7,84.2,80.8,77.0,75.5,72.7,84,76,60,30.07,29.93,13,4,13,0.00
2013-6-16,91.6,84.1,79.3,78.4,75.8,72.9,90,77,60,30.10,30.02,13,4,13,0.00
2013-6-17,93.6,85.6,76.3,80.6,74.4,68.9,97,71,48,30.09,30.00,14,3,14,0.00
2013-6-18,92.8,85.0,75.4,81.5,74.8,71.8,99,73,54,30.07,29.98,12,3,12,0.00
2013-6-19,92.8,85.3,77.2,80.4,75.1,71.2,96,73,51,30.06,29.98,12,3,12,0.00
2013-6-20,93.4,84.1,75.6,81.5,72.7,63.9,98,71,41,30.11,30.01,13,2,13,0.00
2013-6-21,91.9,78.6,74.5,75.2,71.3,68.2,90,79,48,30.12,30.05,15,2,15,0.00
2013-6-22,93.6,82.3,73.8,75.7,70.6,62.2,94,71,37,30.12,30.05,13,3,13,0.04
2013-6-23,94.5,82.1,73.0,77.0,73.4,69.1,96,77,46,30.15,30.06,11,3,11,0.41
2013-6-24,94.5,83.7,75.2,77.4,73.3,63.0,97,74,38,30.19,30.06,15,3,15,0.50
2013-6-25,95.4,83.4,74.1,80.1,73.0,65.5,99,74,39,30.18,30.03,17,3,17,0.40
2013-6-26,92.8,80.3,75.0,79.0,74.6,70.5,99,85,49,30.10,30.01,6,1,6,0.00
2013-6-29,86.4,81.1,75.9,75.4,74.0,70.9,90,80,66,29.87,29.81,17,2,17,0.05
2013-6-30,92.7,84.0,76.6,76.5,74.2,71.1,92,74,54,29.90,29.81,17,4,17,0.00
2013-7-1,80.2,76.2,72.1,78.3,75.1,71.8,99,96,85,30.00,29.83,10,3,69,1.64
2013-7-2,90.9,79.7,73.0,80.4,73.3,68.9,99,83,55,30.09,29.96,16,3,16,1.25
2013-7-3,91.0,80.0,72.0,78.6,74.0,71.6,99,83,56,30.11,30.03,21,4,21,1.70
2013-7-4,93.2,80.8,73.0,75.7,73.5,70.2,99,81,49,30.17,30.06,13,4,13,0.46
2013-7-5,91.8,78.0,72.7,76.5,73.3,70.9,99,88,53,30.15,30.07,17,4,17,0.77
2013-7-6,93.6,86.1,77.5,76.3,72.9,65.5,92,67,41,30.12,30.04,16,5,16,0.01
2013-7-7,95.5,82.4,76.1,77.0,74.2,67.1,98,79,41,30.15,30.03,21,4,21,0.30
2013-7-8,93.7,81.9,73.4,78.8,75.0,71.4,99,82,53,30.17,30.05,11,3,11,1.10
2013-7-9,127.9,79.1,77.2,73.6,59.7,44.8,73,52,36,30.16,30.05,2,-829,2,24.35
2013-7-10,136.6,77.3,58.1,74.3,63.9,30.6,91,65,42,30.11,29.96,2,-891,2,29.69
2013-7-11,82.0,77.3,74.5,77.5,71.1,58.3,99,83,51,30.04,29.93,2,-839,2,28.97
2013-7-12,82.0,77.7,75.4,77.4,67.4,52.9,99,73,43,29.97,29.89,2,-871,2,28.52
2013-7-13,79.5,76.6,73.8,77.4,72.5,65.8,99,88,67,29.99,29.91,2,-740,2,29.31
2013-7-14,80.8,77.4,74.1,74.8,70.8,60.8,97,81,55,30.09,29.96,172,-859,172,28.61
2013-7-15,92.3,77.5,70.9,75.7,67.6,50.2,94,73,43,30.12,30.02,2,-850,2,29.48
2013-7-16,113.0,77.4,27.0,73.0,66.9,7.9,89,71,38,30.17,30.08,2,-742,2,29.54
2013-7-17,112.1,76.0,70.9,85.1,68.9,17.4,99,81,37,30.17,30.06,5,-755,5,28.12
2013-7-18,86.2,76.2,72.9,76.8,69.9,52.9,99,83,43,30.13,30.04,2,-805,2,26.94
2013-7-19,79.9,76.7,74.7,75.9,71.5,57.6,99,85,50,30.13,30.05,2,-824,2,232.85
2013-7-20,81.3,77.2,74.1,76.6,69.3,50.5,98,79,38,30.12,30.02,2,-875,2,29.92
2013-7-21,111.7,78.6,61.9,76.3,69.2,38.7,97,74,49,30.13,30.05,2,-850,2,29.44
2013-7-22,109.8,79.7,68.4,89.4,68.5,48.2,97,70,52,30.14,30.01,2,-834,2,673.00
2013-7-23,83.7,79.7,71.6,72.7,64.4,51.6,73,60,49,30.11,29.97,2,-807,2,28.91
2013-7-24,92.7,80.6,73.0,73.4,67.8,52.0,81,66,51,30.01,29.90,2,-811,2,27.64
2013-7-25,84.4,80.6,76.8,75.7,68.7,53.1,96,68,49,30.01,29.87,2,-772,2,27.12
2013-7-26,84.0,79.3,77.0,78.3,70.0,49.1,99,75,38,30.02,29.95,2,-839,2,26.91
2013-7-27,86.7,79.3,73.8,77.9,66.4,40.5,98,67,43,30.01,29.92,2,-840,2,29.66
2013-7-28,84.0,78.5,76.3,75.7,67.0,56.5,93,69,48,30.04,29.93,2,-822,2,39.37
2013-7-29,94.1,78.3,73.6,76.6,63.2,37.0,96,64,24,30.14,30.01,2,-879,2,29.91
2013-7-30,85.6,77.8,75.2,78.1,66.5,41.2,99,71,31,30.18,30.06,2,-882,2,28.90
2013-7-31,90.0,78.1,75.4,74.7,65.7,45.1,90,68,33,30.14,30.00,2,-882,2,28.32
2013-8-1,87.8,78.9,76.8,74.1,67.5,52.5,87,69,41,30.05,29.96,2,-834,2,442.56
2013-8-2,77.5,76.6,75.2,72.7,71.4,69.8,90,84,77,30.01,29.96,0,-999,0,29.91
2013-8-3,88.0,79.4,76.5,74.1,63.7,43.3,88,60,41,30.11,30.01,2,-858,2,29.98
2013-8-4,89.6,80.7,77.2,76.8,67.7,54.9,90,66,49,30.11,30.00,2,-846,2,917.13
2013-8-5,93.7,81.3,75.4,76.1,66.7,54.1,87,62,46,30.04,29.94,2,-851,2,29.33
2013-8-6,85.5,78.8,76.5,78.6,70.2,57.0,99,76,47,30.01,29.90,2,-860,2,466.91
2013-8-7,82.8,78.5,73.0,75.7,69.0,48.2,93,74,37,29.97,29.89,2,-780,2,28.74
2013-8-8,82.2,78.0,73.6,76.1,68.7,51.1,97,76,40,30.04,29.93,2,-820,2,29.87
2013-8-9,79.7,77.8,75.7,75.6,74.1,70.0,95,89,75,30.03,29.96,2,-848,2,27.35
2013-8-10,86.2,80.1,74.7,74.8,63.3,46.9,98,59,34,30.14,30.04,2,-865,2,60.67
2013-8-11,87.3,80.3,77.0,75.9,66.9,47.7,91,66,35,30.16,30.08,2,-903,2,29.70
2013-8-12,89.6,78.9,76.1,77.4,68.0,57.0,97,71,49,30.15,30.01,2,-869,2,29.27
2013-8-13,86.2,79.2,75.2,74.5,64.4,50.4,90,62,39,30.05,29.94,2,-863,2,29.92
2013-8-14,86.4,80.8,75.0,76.5,67.3,51.6,91,65,42,30.02,29.93,2,-859,2,29.76
2013-8-15,84.6,79.6,76.5,75.0,66.3,52.5,88,65,40,30.05,29.95,2,-865,2,26.61
2013-8-16,85.5,80.6,77.2,75.0,65.3,45.0,83,61,32,30.06,29.96,2,-863,2,29.21
2013-8-17,86.2,78.5,74.8,77.9,66.9,48.9,99,71,35,30.09,29.98,2,-924,2,109.96
2013-8-18,83.3,78.3,73.2,77.2,70.4,50.2,98,78,44,30.11,30.01,2,-786,2,27.63
2013-8-19,81.7,75.8,73.0,76.8,73.2,54.9,99,93,44,30.09,29.97,7,-864,7,25.74
2013-8-20,82.4,77.0,73.4,78.1,65.7,47.5,99,71,35,30.10,29.99,2,-878,2,908.72
2013-8-21,84.6,77.2,73.6,77.4,69.1,52.3,99,79,42,30.12,29.97,0,-945,0,27.70
2013-8-22,84.9,77.2,72.7,78.6,72.2,51.8,99,87,41,30.10,29.98,3,-793,3,28.17
2013-8-23,78.6,77.2,76.5,78.1,76.8,76.1,99,99,99,30.02,29.96,2,-845,2,26.08
2013-8-26,79.7,78.3,77.2,67.1,59.1,50.9,69,52,40,30.14,30.01,0,-999,0,383.88
2013-8-29,84.4,79.9,77.2,72.0,61.3,52.9,69,53,42,30.04,29.96,2,-891,2,0.00
2013-8-30,84.0,79.4,77.2,76.1,68.0,50.4,93,70,39,30.13,29.90,2,-869,2,28.74
2013-8-31,81.0,77.2,74.8,79.5,75.1,69.1,99,94,70,30.01,29.89,2,-680,2,29.75
2013-9-4,89.3,84.8,74.3,78.1,76.2,71.5,96,76,60,30.06,30.01,3,2,11,0.64
2013-9-5,91.3,87.3,74.6,78.0,76.4,73.1,95,71,63,30.05,30.01,3,2,7,0.00
2013-9-6,90.8,77.8,76.1,78.8,75.4,74.0,95,92,68,30.04,29.96,3,0,3,0.01
2013-9-7,90.3,79.9,71.2,75.0,71.4,65.1,94,77,46,30.04,29.93,10,2,11,0.00
2013-9-8,89.4,81.2,73.2,74.7,72.2,69.1,94,76,54,29.98,29.88,9,1,13,0.00
2013-9-9,92.7,83.4,74.7,74.8,72.2,66.7,92,70,48,30.04,29.94,10,2,12,0.00
2013-9-10,91.2,82.9,75.4,75.0,71.0,64.2,91,69,45,30.09,30.00,13,3,16,0.00
2013-9-11,92.5,83.1,74.8,75.6,70.5,62.6,91,68,39,30.08,29.99,13,2,15,0.00
2013-9-12,89.8,81.1,74.8,75.9,73.5,71.1,94,79,58,30.04,29.89,8,1,10,0.00
2013-9-13,89.1,80.7,73.0,77.5,73.7,71.4,97,80,61,29.92,29.83,8,1,10,0.00
2013-9-14,90.9,82.4,73.9,77.5,74.3,72.1,97,78,59,29.99,29.85,8,1,11,0.00
2013-9-15,93.9,81.2,74.3,78.1,73.5,68.0,93,79,50,30.09,29.97,16,2,26,0.02
2013-9-16,93.2,79.6,74.1,75.7,73.5,70.0,96,83,53,30.08,29.98,12,1,17,0.43
2013-9-17,91.6,79.7,72.7,76.1,73.1,69.6,98,82,50,30.06,29.94,14,2,17,0.01
2013-9-18,90.1,79.8,74.8,77.0,73.7,71.6,94,82,57,30.04,29.96,16,2,21,0.16
2013-9-19,90.0,79.2,74.8,78.3,73.7,72.0,96,84,57,30.06,29.97,16,2,18,1.02
2013-9-20,88.2,80.1,72.5,74.1,72.1,68.5,97,78,54,30.04,29.90,11,1,11,0.00
2013-9-21,89.8,80.6,70.5,75.6,70.8,68.0,95,73,52,29.95,29.79,9,1,9,0.00
2013-9-22,87.8,80.5,76.5,79.3,75.8,71.6,96,86,67,29.86,29.76,11,1,14,0.38
2013-9-23,81.7,77.7,75.7,78.6,76.2,74.5,98,95,88,29.95,29.83,6,0,7,1.32
2013-9-24,81.3,77.8,74.7,77.9,75.7,73.2,98,93,85,29.96,29.85,6,1,10,1.67
2013-9-25,81.1,76.9,70.2,78.6,74.8,69.3,98,93,85,29.92,29.80,11,1,12,3.25
2013-9-26,88.2,81.9,75.6,79.0,76.3,70.9,93,83,70,29.90,29.80,11,2,14,0.00
2013-9-27,84.4,76.4,70.0,74.7,70.4,67.3,95,83,62,29.98,29.88,10,2,14,0.00
2013-9-28,87.3,77.3,70.5,75.0,71.2,68.9,95,82,57,30.01,29.94,14,2,15,0.00
2013-9-29,87.6,78.3,70.3,72.5,69.8,65.8,92,76,50,30.01,29.91,10,2,12,0.00
2013-9-30,87.8,79.0,71.8,74.5,71.6,67.8,96,79,54,30.01,29.93,8,1,10,0.00
2013-10-1,90.0,80.7,73.9,75.4,72.8,68.0,94,78,50,30.06,29.97,12,2,16,0.76
2013-10-2,89.4,80.4,73.0,73.9,71.2,69.6,91,75,54,30.06,29.97,11,2,15,0.00
2013-10-3,88.9,80.4,73.8,74.7,71.7,65.5,90,76,48,30.08,29.98,9,2,11,0.00
2013-10-4,88.3,80.6,75.9,75.4,73.2,65.7,91,79,52,30.10,30.01,9,1,9,0.00
2013-10-5,89.1,80.7,74.3,75.6,72.6,68.7,90,77,53,30.07,29.96,9,1,10,0.00
2013-10-6,90.0,80.6,72.9,75.6,72.6,66.6,97,78,49,30.00,29.87,9,1,9,0.00
2013-10-7,86.4,79.5,73.6,79.0,75.3,72.0,98,87,75,29.88,29.76,12,2,16,0.56
2013-10-8,85.3,80.5,75.0,76.8,74.5,70.2,94,82,72,29.97,29.81,12,2,13,0.00
2013-10-9,80.2,74.4,68.7,71.2,68.6,64.9,88,82,72,30.06,29.96,11,2,12,0.00
2013-10-10,82.8,73.6,64.8,70.0,66.7,63.0,95,80,63,30.08,29.98,11,1,11,0.00
2013-10-11,84.9,74.5,65.1,70.3,66.7,63.0,98,78,54,30.06,29.97,9,1,11,0.00
2013-10-12,84.0,73.9,64.9,69.3,64.3,59.9,98,75,46,30.06,29.99,9,1,10,0.00
2013-10-13,84.4,73.2,62.6,70.2,64.0,60.4,97,75,47,30.10,30.00,9,1,9,0.00
2013-10-14,83.3,74.4,64.2,69.8,66.3,62.8,97,77,57,30.06,29.95,13,2,13,0.00
2013-10-15,79.3,72.2,66.7,71.8,68.0,64.9,96,87,76,30.02,29.92,9,1,12,0.00
2013-10-16,81.9,74.1,67.6,71.2,68.6,64.8,98,84,61,29.99,29.92,7,1,9,0.00
2013-10-17,84.4,75.4,67.8,74.3,70.6,66.9,98,86,68,29.99,29.91,7,1,9,0.00
2013-10-18,88.2,77.2,69.1,75.7,72.1,68.2,98,85,60,29.99,29.91,8,1,10,0.00
2013-10-19,87.3,78.0,70.7,77.5,73.9,70.2,98,88,66,29.96,29.88,8,1,9,0.00
2013-10-20,86.5,78.7,73.2,76.3,73.2,70.9,98,84,61,29.97,29.88,8,1,10,0.00
2013-10-21,86.4,78.6,72.0,75.7,73.0,69.1,97,84,58,30.01,29.94,9,1,10,0.00
2013-10-22,87.1,76.8,71.2,76.3,72.6,70.5,99,88,64,29.96,29.85,17,1,17,0.17
2013-10-23,77.5,73.9,67.8,73.0,64.4,52.9,98,73,47,30.03,29.83,13,2,16,0.02
2013-10-24,71.6,65.6,57.0,59.0,49.3,43.3,92,56,42,30.19,30.03,11,2,12,0.00
2013-10-25,77.4,65.4,52.7,60.3,55.3,48.6,97,73,37,30.26,30.17,11,1,16,0.00
2013-10-26,76.5,66.1,57.7,58.5,56.4,54.1,89,72,51,30.23,30.12,10,1,11,0.00
2013-10-27,76.3,65.2,54.0,59.7,56.2,51.6,94,74,48,30.16,30.07,9,1,10,0.00
2013-10-28,81.0,68.5,58.8,61.5,57.2,47.1,87,69,32,30.21,30.11,8,1,10,0.00
2013-10-29,84.2,73.5,64.9,67.3,63.3,59.9,93,73,45,30.25,30.14,12,2,13,0.00
2013-10-30,84.9,75.1,67.5,70.3,66.2,64.2,91,75,51,30.24,30.10,11,2,12,0.00
2013-10-31,86.4,74.6,65.1,69.4,66.8,63.3,98,79,48,30.14,29.98,8,1,10,0.01
2013-11-1,82.2,73.6,69.1,74.3,71.2,68.0,98,93,77,30.01,29.89,4,0,6,0.00
2013-11-2,77.4,71.2,62.8,75.2,67.6,60.3,97,89,72,30.01,29.82,11,1,13,0.95
2013-11-3,74.5,65.3,56.8,61.2,50.6,39.6,98,63,30,30.14,29.99,12,2,14,0.00
2013-11-4,78.4,68.9,59.2,64.0,57.2,49.6,86,67,51,30.17,30.10,18,4,20,0.00
2013-11-5,82.2,73.3,63.9,68.9,65.7,62.1,94,78,60,30.17,30.06,16,3,16,0.00
2013-11-6,83.7,74.9,70.0,70.2,67.3,64.2,89,78,52,30.12,30.03,14,2,14,0.00
2013-11-7,79.3,72.1,66.6,69.4,67.3,65.1,97,85,66,30.08,29.99,8,1,11,0.00
2013-11-8,78.4,70.6,63.9,69.3,62.4,56.5,93,76,56,30.14,30.02,13,3,15,0.00
2013-11-9,80.8,72.4,63.7,67.6,63.0,58.8,85,73,62,30.17,30.09,14,3,15,0.00
2013-11-10,81.0,72.0,65.5,69.3,65.2,61.5,89,80,58,30.18,30.08,11,1,11,0.00
2013-11-11,81.0,71.6,65.1,69.3,65.6,61.9,94,82,62,30.17,30.08,9,1,11,0.00
2013-11-12,78.3,69.2,63.7,69.1,65.7,62.6,98,89,69,30.13,30.03,7,1,10,0.00
2013-11-13,65.7,59.1,52.2,52.0,48.6,45.9,80,68,58,30.33,30.21,17,5,18,0.00
2013-11-14,75.6,63.3,51.4,58.5,52.9,46.0,86,70,50,30.31,30.17,14,3,16,0.00
2013-11-15,71.4,67.1,63.1,65.7,61.8,57.2,92,83,73,30.19,30.06,7,1,9,0.07
2013-11-16,73.9,70.4,67.3,70.5,67.8,65.1,96,92,86,30.14,30.03,8,1,10,0.44
2013-11-17,83.5,74.1,68.4,73.0,68.2,64.8,96,83,64,30.09,30.01,7,1,8,0.00
2013-11-18,82.2,73.7,66.7,72.5,69.8,66.0,98,88,69,30.04,29.94,8,1,10,0.00
2013-11-19,79.2,73.0,66.0,72.7,68.2,59.9,97,86,67,29.99,29.89,9,1,12,0.00
2013-11-20,79.3,71.0,63.3,72.0,66.4,60.3,91,86,77,30.11,29.98,10,2,12,0.00
2013-11-21,83.7,75.1,70.5,72.0,69.7,68.0,93,84,65,30.18,30.09,16,3,18,0.00
2013-11-22,82.6,75.2,69.1,71.4,68.6,65.3,95,81,61,30.19,30.09,12,2,12,0.00
2013-11-23,81.3,71.5,64.2,69.1,65.8,62.8,96,83,57,30.13,30.03,10,1,10,0.00
2013-11-24,70.2,65.2,57.7,67.5,59.5,50.5,95,82,70,30.24,30.05,15,3,16,0.00
2013-11-25,74.1,66.9,57.7,63.1,57.8,50.5,83,73,61,30.23,30.05,18,4,19,0.00
2013-11-26,80.1,72.9,67.5,73.4,69.8,63.1,96,90,78,30.05,29.77,13,2,17,0.60
2013-11-27,71.8,62.9,47.8,70.3,55.9,39.6,97,78,65,30.23,29.75,17,5,22,0.03
2013-11-28,59.4,49.2,37.4,49.1,40.9,30.0,87,74,45,30.37,30.22,10,2,11,0.35
2013-11-29,71.2,60.0,50.4,56.3,51.9,46.9,90,76,53,30.38,30.27,11,-1,15,0.17
2013-11-30,75.2,65.8,54.1,63.1,58.3,47.8,93,77,62,30.33,30.19,11,-67,12,1.23
2013-12-1,69.1,61.0,57.6,63.7,59.2,57.0,100,94,81,30.21,30.02,7,-58,9,0.40
2013-12-2,74.8,64.3,58.8,64.0,57.5,55.4,94,79,60,29.93,29.86,5,-24,5,0.00
2013-12-3,77.0,66.2,54.3,67.1,61.6,53.4,99,87,63,29.99,29.90,7,0,8,0.00
2013-12-4,81.7,71.5,64.8,71.6,67.2,64.2,99,87,62,30.08,29.97,6,-20,8,0.00
2013-12-5,69.3,69.3,69.3,66.2,66.2,66.2,90,90,90,30.17,30.17,0,-999,0,0.00
2013-12-16,70.2,55.8,48.7,57.9,44.3,40.5,85,66,46,30.25,30.17,5,-31,7,0.03
2013-12-17,67.3,53.5,44.2,50.5,43.7,36.5,95,72,34,30.28,30.18,5,0,6,0.00
2013-12-18,67.8,54.8,45.1,53.6,47.8,40.6,98,80,43,30.31,30.22,5,0,6,0.00
2013-12-19,73.9,58.7,44.8,57.2,50.5,42.3,95,76,48,30.29,30.17,6,0,7,0.00
2013-12-20,82.0,69.1,58.6,66.6,62.0,55.9,92,79,58,30.20,30.09,7,0,11,0.00
2013-12-21,83.5,73.8,66.6,70.5,67.4,64.2,95,81,63,30.13,30.02,9,1,9,0.00
2013-12-22,82.4,74.4,69.1,72.9,69.5,67.6,97,86,70,30.14,30.06,10,1,10,0.00
2013-12-23,81.9,73.9,66.4,74.1,70.8,65.5,98,90,75,30.17,30.09,8,1,10,0.00
2013-12-24,72.1,61.4,50.9,70.9,49.6,30.6,96,69,30,30.29,30.14,10,2,13,0.00
2013-12-25,73.8,60.3,46.8,58.8,48.0,33.4,73,64,53,30.28,30.13,6,1,7,0.00
2013-12-26,76.5,65.5,58.8,62.8,58.6,55.0,90,79,53,30.23,30.10,7,1,7,0.00
2013-12-27,70.0,64.8,60.6,64.4,60.6,56.5,91,86,80,30.26,30.15,6,1,7,0.01
2013-12-28,77.5,70.3,64.2,69.1,66.1,61.9,95,87,74,30.22,29.99,7,1,8,0.00
2013-12-29,75.0,69.6,63.7,71.6,67.1,61.5,96,92,88,30.04,29.90,7,1,7,0.39
2013-12-30,66.0,62.2,58.8,62.1,58.5,53.4,94,88,78,30.22,30.02,5,1,6,0.00
2013-12-31,68.5,63.0,58.8,55.6,51.4,48.7,85,67,51,30.31,30.17,5,0,6,0.00
2014-1-1,62.2,60.3,57.4,61.2,57.5,50.5,98,91,67,30.27,30.06,5,1,6,0.24
2014-1-2,76.8,67.2,60.6,72.5,65.6,54.5,99,95,80,30.06,29.85,9,1,11,0.29